N66M KDAG-KSAN

Flight info

Callsign N66M
Flight time 0h 34m
Altitude 23000
Route MOMAR LUCKI1
Aircraft E55P/L-VGDW/C

Departure

Time 2026-04-20 01:01
Airport Barstow Daggett Airport (KDAG)

Arrival

Time 2026-04-20 01:35
Airport San Diego International Airport (KSAN)
Time Latitude Longitude Altitude Speed Heading
2026-04-20 00:30 34.85640 -116.79042 2004 ft 0 kts 234°
2026-04-20 00:56 34.85638 -116.79045 2004 ft 1 kts 235°
2026-04-20 00:56 34.85619 -116.79057 2004 ft 4 kts 196°
2026-04-20 00:56 34.85574 -116.79074 2004 ft 8 kts 203°
2026-04-20 00:56 34.85518 -116.79114 2005 ft 9 kts 191°
2026-04-20 00:57 34.85455 -116.79099 2005 ft 9 kts 212°
2026-04-20 00:57 34.85407 -116.79166 2006 ft 11 kts 231°
2026-04-20 00:57 34.85351 -116.79249 2008 ft 13 kts 231°
2026-04-20 00:57 34.85290 -116.79337 2009 ft 13 kts 230°
2026-04-20 00:58 34.85248 -116.79436 2010 ft 13 kts 266°
2026-04-20 00:58 34.85247 -116.79555 2011 ft 15 kts 271°
2026-04-20 00:58 34.85249 -116.79681 2013 ft 14 kts 270°
2026-04-20 00:58 34.85223 -116.79758 2014 ft 6 kts 216°
2026-04-20 00:59 34.85187 -116.79769 2015 ft 4 kts 182°
2026-04-20 00:59 34.85157 -116.79769 2015 ft 4 kts 175°
2026-04-20 00:59 34.85143 -116.79730 2015 ft 5 kts 92°
2026-04-20 00:59 34.85143 -116.79715 2015 ft 0 kts 89°
2026-04-20 01:00 34.85143 -116.79697 2015 ft 15 kts 89°
2026-04-20 01:01 34.85144 -116.79234 2010 ft 92 kts 89°
2026-04-20 01:01 34.85145 -116.78203 2014 ft 149 kts 89°
2026-04-20 01:01 34.85133 -116.76867 2438 ft 165 kts 85°
2026-04-20 01:01 34.85175 -116.75526 3193 ft 158 kts 86°
2026-04-20 01:02 34.85271 -116.74153 3775 ft 166 kts 72°
2026-04-20 01:02 34.85909 -116.73071 4471 ft 160 kts 39°
2026-04-20 01:02 34.86695 -116.72158 5152 ft 161 kts 43°
2026-04-20 01:02 34.87477 -116.71179 5798 ft 165 kts 44°
2026-04-20 01:03 34.88306 -116.70139 6378 ft 183 kts 44°
2026-04-20 01:03 34.88992 -116.68764 6979 ft 205 kts 81°
2026-04-20 01:03 34.88678 -116.67082 7614 ft 220 kts 127°
2026-04-20 01:03 34.87443 -116.65884 8252 ft 236 kts 150°
2026-04-20 01:04 34.85955 -116.64885 8850 ft 255 kts 159°
2026-04-20 01:04 34.84288 -116.64024 9506 ft 271 kts 157°
2026-04-20 01:04 34.82516 -116.63079 10151 ft 287 kts 157°
2026-04-20 01:04 34.80635 -116.62075 10874 ft 303 kts 157°
2026-04-20 01:05 34.78696 -116.61043 11704 ft 316 kts 157°
2026-04-20 01:05 34.76642 -116.59949 12551 ft 328 kts 157°
2026-04-20 01:05 34.74551 -116.58836 13392 ft 338 kts 156°
2026-04-20 01:05 34.72363 -116.57674 14256 ft 348 kts 156°
2026-04-20 01:06 34.70125 -116.56484 15114 ft 355 kts 156°
2026-04-20 01:06 34.67856 -116.55279 15973 ft 361 kts 157°
2026-04-20 01:06 34.65554 -116.54057 16840 ft 366 kts 157°
2026-04-20 01:06 34.63183 -116.52800 17724 ft 371 kts 157°
2026-04-20 01:07 34.60798 -116.51536 18490 ft 377 kts 157°
2026-04-20 01:07 34.58399 -116.50266 19241 ft 383 kts 157°
2026-04-20 01:07 34.55907 -116.48946 19950 ft 390 kts 157°
2026-04-20 01:07 34.53431 -116.47637 20647 ft 396 kts 157°
2026-04-20 01:08 34.50883 -116.46291 21340 ft 401 kts 157°
2026-04-20 01:08 34.48299 -116.44926 21961 ft 408 kts 157°
2026-04-20 01:08 34.45639 -116.43523 22114 ft 420 kts 157°
2026-04-20 01:08 34.42998 -116.42131 22144 ft 420 kts 157°
2026-04-20 01:09 34.40320 -116.40720 22114 ft 419 kts 157°
2026-04-20 01:09 34.37636 -116.39307 22111 ft 418 kts 157°
2026-04-20 01:09 34.34958 -116.37897 22113 ft 420 kts 157°
2026-04-20 01:09 34.32291 -116.36494 22115 ft 423 kts 157°
2026-04-20 01:10 34.29588 -116.35074 22083 ft 424 kts 157°
2026-04-20 01:10 34.24158 -116.32223 22060 ft 423 kts 158°
2026-04-20 01:10 34.21455 -116.30805 22060 ft 422 kts 158°
2026-04-20 01:11 34.18766 -116.29395 22078 ft 422 kts 158°
2026-04-20 01:11 34.16074 -116.27985 22068 ft 423 kts 158°
2026-04-20 01:11 34.13359 -116.26565 22044 ft 425 kts 158°
2026-04-20 01:11 34.10640 -116.25143 22006 ft 427 kts 158°
2026-04-20 01:12 34.07918 -116.23720 21940 ft 428 kts 158°
2026-04-20 01:12 34.05168 -116.22283 21885 ft 428 kts 158°
2026-04-20 01:12 34.02446 -116.20863 21829 ft 429 kts 158°
2026-04-20 01:12 33.99693 -116.19427 21750 ft 429 kts 158°
2026-04-20 01:13 33.96961 -116.18002 21719 ft 424 kts 158°
2026-04-20 01:13 33.94278 -116.16605 21812 ft 416 kts 158°
2026-04-20 01:13 33.91635 -116.15229 21896 ft 414 kts 158°
2026-04-20 01:13 33.88952 -116.13834 21960 ft 418 kts 158°
2026-04-20 01:14 33.86257 -116.12434 22047 ft 426 kts 158°
2026-04-20 01:14 33.83525 -116.11015 21971 ft 433 kts 158°
2026-04-20 01:14 33.80745 -116.09572 21896 ft 432 kts 158°
2026-04-20 01:14 33.77992 -116.08143 21857 ft 429 kts 157°
2026-04-20 01:15 33.75248 -116.06720 21806 ft 425 kts 158°
2026-04-20 01:15 33.72539 -116.05317 21831 ft 421 kts 158°
2026-04-20 01:15 33.69864 -116.03932 21844 ft 421 kts 158°
2026-04-20 01:15 33.67154 -116.02531 21866 ft 424 kts 158°
2026-04-20 01:16 33.64442 -116.01129 21923 ft 426 kts 158°
2026-04-20 01:16 33.61708 -115.99717 21953 ft 430 kts 158°
2026-04-20 01:16 33.58950 -115.98294 21939 ft 432 kts 158°
2026-04-20 01:16 33.56169 -115.96979 21901 ft 431 kts 165°
2026-04-20 01:17 33.53211 -115.96774 21883 ft 426 kts 188°
2026-04-20 01:17 33.50438 -115.97898 21767 ft 425 kts 209°
2026-04-20 01:17 33.48192 -116.00146 21605 ft 425 kts 230°
2026-04-20 01:17 33.46518 -116.03062 21378 ft 424 kts 234°
2026-04-20 01:18 33.44820 -116.05950 21060 ft 423 kts 235°
2026-04-20 01:18 33.43156 -116.08828 20758 ft 418 kts 234°
2026-04-20 01:18 33.41497 -116.11691 20495 ft 413 kts 234°
2026-04-20 01:18 33.39874 -116.14478 20234 ft 408 kts 234°
2026-04-20 01:19 33.38266 -116.17242 19956 ft 403 kts 234°
2026-04-20 01:19 33.36681 -116.19965 19681 ft 399 kts 234°
2026-04-20 01:19 33.35110 -116.22661 19232 ft 390 kts 234°
2026-04-20 01:19 33.33387 -116.25086 18708 ft 382 kts 218°
2026-04-20 01:20 33.31086 -116.26582 18214 ft 377 kts 204°
2026-04-20 01:20 33.28731 -116.27966 17701 ft 377 kts 206°
2026-04-20 01:20 33.26387 -116.29320 17240 ft 376 kts 206°
2026-04-20 01:20 33.24050 -116.30689 16877 ft 375 kts 206°
2026-04-20 01:21 33.21697 -116.32067 16545 ft 374 kts 206°
2026-04-20 01:21 33.19380 -116.33423 16206 ft 373 kts 206°
2026-04-20 01:21 33.17056 -116.34782 15847 ft 372 kts 205°
2026-04-20 01:21 33.14718 -116.36150 15462 ft 370 kts 205°
2026-04-20 01:22 33.12424 -116.37490 15063 ft 369 kts 205°
2026-04-20 01:22 33.10133 -116.38827 14631 ft 367 kts 205°
2026-04-20 01:22 33.07836 -116.40169 14138 ft 365 kts 205°
2026-04-20 01:22 33.05581 -116.41484 13601 ft 362 kts 205°
2026-04-20 01:23 33.03312 -116.42807 13056 ft 359 kts 205°
2026-04-20 01:23 33.01096 -116.44102 12522 ft 356 kts 206°
2026-04-20 01:23 32.99159 -116.45808 12025 ft 339 kts 221°
2026-04-20 01:23 32.97402 -116.47589 11499 ft 326 kts 218°
2026-04-20 01:24 32.95702 -116.49315 10988 ft 315 kts 219°
2026-04-20 01:24 32.94055 -116.50976 10493 ft 310 kts 219°
2026-04-20 01:24 32.92410 -116.52635 10020 ft 310 kts 219°
2026-04-20 01:24 32.90778 -116.54279 9628 ft 311 kts 219°
2026-04-20 01:25 32.89124 -116.55946 9120 ft 311 kts 219°
2026-04-20 01:25 32.87469 -116.57610 8653 ft 310 kts 219°
2026-04-20 01:25 32.85846 -116.59243 8590 ft 299 kts 219°
2026-04-20 01:25 32.84292 -116.60808 8492 ft 289 kts 220°
2026-04-20 01:26 32.82768 -116.62345 8351 ft 284 kts 220°
2026-04-20 01:26 32.81279 -116.63848 8227 ft 281 kts 220°
2026-04-20 01:26 32.79768 -116.65372 8104 ft 281 kts 219°
2026-04-20 01:26 32.78289 -116.66859 7986 ft 283 kts 219°
2026-04-20 01:27 32.76973 -116.68584 7912 ft 280 kts 239°
2026-04-20 01:27 32.76046 -116.70627 7654 ft 276 kts 239°
2026-04-20 01:27 32.75121 -116.72575 7388 ft 267 kts 240°
2026-04-20 01:27 32.74230 -116.74458 7120 ft 257 kts 240°
2026-04-20 01:28 32.73364 -116.76288 6862 ft 253 kts 240°
2026-04-20 01:28 32.72509 -116.78097 6610 ft 251 kts 239°
2026-04-20 01:28 32.71669 -116.79870 6344 ft 245 kts 239°
2026-04-20 01:28 32.70842 -116.81623 6064 ft 239 kts 240°
2026-04-20 01:29 32.70233 -116.83448 5726 ft 237 kts 249°
2026-04-20 01:29 32.69668 -116.85266 5421 ft 233 kts 248°
2026-04-20 01:29 32.69119 -116.87032 5129 ft 229 kts 248°
2026-04-20 01:29 32.68583 -116.88769 5021 ft 216 kts 248°
2026-04-20 01:30 32.68091 -116.90435 4662 ft 218 kts 249°
2026-04-20 01:30 32.67585 -116.92159 4243 ft 222 kts 249°
2026-04-20 01:30 32.67175 -116.93893 4036 ft 216 kts 267°
2026-04-20 01:30 32.67561 -116.95546 3935 ft 204 kts 291°
2026-04-20 01:31 32.68013 -116.97129 3631 ft 197 kts 285°
2026-04-20 01:31 32.68405 -116.98646 3580 ft 185 kts 284°
2026-04-20 01:31 32.68759 -117.00070 3572 ft 177 kts 284°
2026-04-20 01:31 32.69107 -117.01492 3272 ft 184 kts 284°
2026-04-20 01:32 32.69466 -117.02966 2870 ft 189 kts 284°
2026-04-20 01:32 32.69826 -117.04436 2668 ft 182 kts 284°
2026-04-20 01:32 32.70180 -117.05888 2292 ft 186 kts 284°
2026-04-20 01:32 32.70542 -117.07372 2024 ft 181 kts 284°
2026-04-20 01:33 32.70872 -117.08778 1818 ft 173 kts 283°
2026-04-20 01:33 32.71188 -117.10094 1597 ft 157 kts 284°
2026-04-20 01:33 32.71489 -117.11310 1366 ft 149 kts 285°
2026-04-20 01:33 32.71778 -117.12441 1196 ft 139 kts 284°
2026-04-20 01:34 32.72044 -117.13513 1017 ft 133 kts 284°
2026-04-20 01:34 32.72294 -117.14571 769 ft 131 kts 284°
2026-04-20 01:34 32.72541 -117.15582 564 ft 123 kts 285°
2026-04-20 01:34 32.72770 -117.16524 376 ft 117 kts 285°
2026-04-20 01:35 32.72987 -117.17431 166 ft 111 kts 285°
2026-04-20 01:35 32.73185 -117.18262 25 ft 97 kts 285°
2026-04-20 01:35 32.73345 -117.18928 22 ft 51 kts 286°
2026-04-20 01:35 32.73431 -117.19092 22 ft 13 kts
2026-04-20 01:36 32.73483 -117.19036 22 ft 8 kts 94°
2026-04-20 01:36 32.73478 -117.19003 22 ft 2 kts 105°
2026-04-20 01:36 32.73478 -117.19002 22 ft 0 kts 104°
2026-04-20 01:37 32.73475 -117.18992 22 ft 4 kts 105°
2026-04-20 01:37 32.73456 -117.18912 22 ft 16 kts 107°
2026-04-20 01:37 32.73420 -117.18761 22 ft 20 kts 106°
2026-04-20 01:38 32.73375 -117.18578 22 ft 25 kts 107°
2026-04-20 01:38 32.73324 -117.18376 22 ft 25 kts 105°
2026-04-20 01:38 32.73279 -117.18173 22 ft 24 kts 106°
2026-04-20 01:38 32.73255 -117.17998 22 ft 17 kts 53°
2026-04-20 01:39 32.73363 -117.17950 22 ft 16 kts 17°
2026-04-20 01:39 32.73426 -117.17958 22 ft 4 kts 290°
2026-04-20 01:39 32.73427 -117.17963 22 ft 0 kts 288°